Location: Lombard
(41.8800°N, 88.0080°W)
Time: 11:32:41
(UTC-05:00)

A-11 Canister half - Pass Details

Date: 07 February 2023
Orbit: 1512 x 1687 km, 47.2° (Epoch: 20 March)

Event Time Altitude Azimuth Distance (km) Brightness Sun altitude
Rises 14:57:02 0° 294° (WNW) 4,765 11.8 20.7°
Reaches altitude 10° 15:00:09 10° 294° (WNW) 3,757 11.4 20.3°
Maximum altitude 15:09:38 86° 209° (SSW) 1,535 9.4 19.0°
Drops below altitude 10° 15:18:53 10° 120° (ESE) 3,665 10.9 17.7°
Sets 15:21:53 0° 120° (ESE) 4,644 11.3 17.3°
